Home > Weather > Perth > Past weeks

Flag for United Kingdom Past Weather in Perth, Scotland, United Kingdom — Yesterday and Last 2 Weeks

Now
66 °F

Passing clouds.


Feels Like: 66 °F
Forecast: 45 / 64 °F
Wind: 7 mph from Southwest

Location: Dundee / Riverside

Current Time: May 31, 2016 at 12:59:59 PM

Latest Report: May 31, 2016 at 12:20 PM


Visibility: N/A

Pressure: 30.24 "Hg

Humidity: 60%

Dew Point: 52 °F

Location of PerthLocation

Past Weather in Perth — Graph

°F

Perth Temperature Yesterday

Maximum temperature yesterday: 64 °F (at 7:20 PM)
Minimum temperature yesterday: 50 °F (at 6:20 AM)
Average temperature yesterday: 58 °F

High & Low Weather Summary for the Past Weeks

 TemperatureHumidityPressure
High64 °F (May 30, 7:20 PM)100% (May 18, 6:50 PM)30.30 "Hg (May 18, 6:50 PM)
Low45 °F (May 25, 6:20 AM)51% (May 16, 12:20 PM)29.42 "Hg (May 21, 11:50 AM)
Average55 °F79%29.96 "Hg
* Reported May 16 11:20 AM — May 31 11:50 AM, Perth, Weather by CustomWeather, © 2016

Note: Actual official high and low records may vary slightly from our data, if they occured in-between our weather recording intervals... More about our weather records

Advertising

Perth Weather History for the Previous 24 Hours

Scroll right to see more
 ConditionsComfort  
Time TempWeatherWind HumidityBarometerVisibility
11:50 AM
Tue, May 31
64 °FPassing clouds.6 mph68%30.24 "HgN/A
11:20 AM64 °FPassing clouds.5 mph56%30.24 "HgN/A
10:50 AM61 °FPassing clouds.7 mph68%30.24 "HgN/A
10:20 AM61 °FPassing clouds.6 mph68%30.24 "HgN/A
9:50 AM61 °FPassing clouds.8 mph72%30.27 "HgN/A
9:20 AM59 °FPassing clouds.7 mph77%30.24 "HgN/A
8:50 AM57 °FPassing clouds.8 mph77%30.24 "HgN/A
8:20 AM59 °FSunny.6 mph72%30.24 "Hg10 mi
7:50 AM57 °FPassing clouds.6 mph77%30.24 "HgN/A
7:20 AM57 °FPassing clouds.7 mph72%30.24 "HgN/A
6:50 AM54 °FSunny.5 mph82%30.24 "Hg10 mi
6:20 AM52 °FSunny.5 mph88%30.24 "Hg10 mi
8:20 PM
Mon, May 30
63 °FPassing clouds.9 mph59%30.21 "HgN/A
7:50 PM63 °FPassing clouds.9 mph59%30.21 "HgN/A
7:20 PM64 °FPassing clouds.9 mph56%30.18 "HgN/A
6:50 PM63 °FScattered clouds.3 mph64%30.18 "HgN/A
6:20 PM61 °FScattered clouds.5 mph77%30.18 "HgN/A
5:50 PM63 °FScattered clouds.6 mph73%30.18 "HgN/A
5:20 PM63 °FPassing clouds.7 mph73%30.18 "HgN/A
4:50 PM63 °FPassing clouds.9 mph73%30.18 "HgN/A
4:20 PM63 °FPassing clouds.9 mph73%30.21 "HgN/A
3:50 PM61 °FPassing clouds.8 mph77%30.21 "HgN/A
3:20 PM61 °FPassing clouds.8 mph77%30.21 "HgN/A
2:50 PM63 °FPassing clouds.8 mph77%30.21 "HgN/A
2:20 PM61 °FPassing clouds.12 mph77%30.18 "HgN/A
1:50 PM63 °FScattered clouds.7 mph77%30.18 "HgN/A
1:20 PM61 °FScattered clouds.7 mph83%30.18 "HgN/A
12:50 PM59 °FScattered clouds.5 mph77%30.18 "HgN/A
12:20 PM57 °FScattered clouds.5 mph82%30.18 "HgN/A
Weather by CustomWeather, © 2016

See weather overviewHow to use our weather pages